• In Hungary
  • List of Countries
  • For 7 days
  • Water Temperature
  • Satellite Maps
  • Weather Map
  • News
  • Weather Widgets
  • user-avatar
    Login

    Hourly Weather Perth

    Today, 22 November, Wednesday

    Time Temperature Precipitation Wind Pressure Humidity
    00:00 +19°C° 0 mm 6 mps 762 mmHg 41%
    01:00 +17°C° 0 mm 6 mps 762 mmHg 44%
    02:00 +16°C° 0 mm 7 mps 763 mmHg 48%
    03:00 +16°C° 0 mm 6 mps 763 mmHg 50%
    04:00 +15°C° 0 mm 6 mps 763 mmHg 52%
    05:00 +14°C° 0 mm 6 mps 763 mmHg 54%
    06:00 +16°C° 0 mm 6 mps 763 mmHg 49%
    07:00 +17°C° 0 mm 6 mps 763 mmHg 45%
    08:00 +19°C° 0 mm 6 mps 764 mmHg 41%
    09:00 +21°C° 0 mm 6 mps 763 mmHg 35%
    10:00 +23°C° 0 mm 5 mps 763 mmHg 29%
    11:00 +26°C° 0 mm 4 mps 763 mmHg 24%
    12:00 +28°C° 0 mm 4 mps 762 mmHg 21%
    13:00 +29°C° 0 mm 4 mps 761 mmHg 19%
    14:00 +30°C° 0 mm 4 mps 761 mmHg 17%
    15:00 +30°C° 0 mm 4 mps 761 mmHg 18%
    16:00 +30°C° 0 mm 5 mps 760 mmHg 19%
    17:00 +30°C° 0 mm 5 mps 760 mmHg 20%
    18:00 +28°C° 0 mm 4 mps 760 mmHg 25%
    19:00 +25°C° 0 mm 4 mps 760 mmHg 30%
    20:00 +22°C° 0 mm 4 mps 760 mmHg 34%
    21:00 +22°C° 0 mm 4 mps 761 mmHg 34%
    22:00 +22°C° 0 mm 4 mps 761 mmHg 33%
    23:00 +21°C° 0 mm 4 mps 761 mmHg 32%

    Tomorrow, 23 November, Thursday

    Time Temperature Precipitation Wind Pressure Humidity
    00:00 +20°C° 0 mm 5 mps 761 mmHg 38%
    01:00 +20°C° 0 mm 6 mps 761 mmHg 43%
    02:00 +18°C° 0 mm 7 mps 761 mmHg 48%
    03:00 +17°C° 0 mm 6 mps 761 mmHg 50%
    04:00 +17°C° 0 mm 6 mps 761 mmHg 52%
    05:00 +16°C° 0 mm 6 mps 761 mmHg 54%
    06:00 +19°C° 0 mm 6 mps 761 mmHg 50%
    07:00 +20°C° 0 mm 6 mps 761 mmHg 46%
    08:00 +22°C° 0 mm 6 mps 761 mmHg 42%
    09:00 +25°C° 0 mm 5 mps 761 mmHg 36%
    10:00 +28°C° 0 mm 4 mps 761 mmHg 30%
    11:00 +30°C° 0 mm 3 mps 760 mmHg 24%
    12:00 +33°C° 0 mm 3 mps 760 mmHg 22%
    13:00 +34°C° 0 mm 3 mps 759 mmHg 20%
    14:00 +35°C° 0 mm 3 mps 758 mmHg 18%
    15:00 +34°C° 0 mm 3 mps 758 mmHg 19%
    16:00 +34°C° 0 mm 4 mps 758 mmHg 21%
    17:00 +33°C° 0 mm 5 mps 757 mmHg 23%
    18:00 +29°C° 0 mm 5 mps 757 mmHg 28%
    19:00 +27°C° 0 mm 5 mps 758 mmHg 33%
    20:00 +25°C° 0 mm 5 mps 758 mmHg 38%
    21:00 +23°C° 0 mm 4 mps 758 mmHg 39%
    22:00 +22°C° 0 mm 4 mps 758 mmHg 40%
    23:00 +22°C° 0 mm 4 mps 758 mmHg 40%

    Day after tomorrow, 24 November, Friday

    Time Temperature Precipitation Wind Pressure Humidity
    00:00 +21°C° 0 mm 3 mps 758 mmHg 36%
    01:00 +21°C° 0 mm 3 mps 757 mmHg 33%
    02:00 +21°C° 0 mm 3 mps 757 mmHg 29%
    03:00 +21°C° 0 mm 3 mps 756 mmHg 31%
    04:00 +21°C° 0 mm 3 mps 756 mmHg 33%
    05:00 +20°C° 0 mm 3 mps 756 mmHg 35%
    06:00 +22°C° 0 mm 3 mps 756 mmHg 33%
    07:00 +25°C° 0 mm 3 mps 757 mmHg 31%
    08:00 +26°C° 0 mm 3 mps 757 mmHg 28%
    09:00 +29°C° 0 mm 3 mps 757 mmHg 25%
    10:00 +31°C° 0 mm 3 mps 756 mmHg 22%
    11:00 +35°C° 0 mm 2 mps 756 mmHg 19%
    12:00 +35°C° 0 mm 3 mps 756 mmHg 19%
    13:00 +35°C° 0 mm 4 mps 755 mmHg 19%
    14:00 +36°C° 0 mm 4 mps 754 mmHg 19%
    15:00 +35°C° 0 mm 5 mps 754 mmHg 22%
    16:00 +34°C° 0 mm 5 mps 754 mmHg 24%
    17:00 +33°C° 0 mm 6 mps 754 mmHg 26%
    18:00 +30°C° 0 mm 6 mps 754 mmHg 32%
    19:00 +28°C° 0 mm 6 mps 754 mmHg 38%
    20:00 +24°C° 0 mm 6 mps 754 mmHg 43%
    21:00 +24°C° 0 mm 6 mps 755 mmHg 46%
    22:00 +23°C° 0 mm 6 mps 755 mmHg 48%
    23:00 +23°C° 0 mm 6 mps 755 mmHg 51%

    25 November, Saturday

    Time Temperature Precipitation Wind Pressure Humidity
    00:00 +22°C° 0 mm 6 mps 755 mmHg 55%
    01:00 +21°C° 0 mm 6 mps 755 mmHg 60%
    02:00 +20°C° 0 mm 6 mps 755 mmHg 65%
    03:00 +20°C° 0 mm 6 mps 755 mmHg 63%
    04:00 +19°C° 0 mm 6 mps 755 mmHg 62%
    05:00 +19°C° 0 mm 6 mps 756 mmHg 60%
    06:00 +20°C° 0 mm 6 mps 756 mmHg 55%
    07:00 +22°C° 0 mm 6 mps 756 mmHg 49%
    08:00 +23°C° 0 mm 6 mps 757 mmHg 44%
    09:00 +27°C° 0 mm 6 mps 757 mmHg 39%
    10:00 +29°C° 0 mm 6 mps 756 mmHg 34%
    11:00 +32°C° 0 mm 6 mps 756 mmHg 29%
    12:00 +33°C° 0 mm 6 mps 756 mmHg 28%
    13:00 +34°C° 0 mm 7 mps 755 mmHg 27%
    14:00 +35°C° 0 mm 7 mps 755 mmHg 26%
    15:00 +34°C° 0 mm 7 mps 755 mmHg 27%
    16:00 +34°C° 0 mm 7 mps 755 mmHg 29%
    17:00 +33°C° 0 mm 7 mps 754 mmHg 31%
    18:00 +30°C° 0 mm 7 mps 755 mmHg 35%
    19:00 +29°C° 0 mm 6 mps 755 mmHg 39%
    20:00 +27°C° 0 mm 6 mps 756 mmHg 43%
    21:00 +26°C° 0 mm 6 mps 756 mmHg 47%
    22:00 +24°C° 0 mm 6 mps 757 mmHg 51%
    23:00 +23°C° 0 mm 7 mps 757 mmHg 56%

    26 November, Sunday

    Time Temperature Precipitation Wind Pressure Humidity
    00:00 +22°C° 0 mm 7 mps 757 mmHg 57%
    01:00 +21°C° 0 mm 7 mps 756 mmHg 58%
    02:00 +20°C° 0 mm 6 mps 756 mmHg 60%
    03:00 +20°C° 0 mm 6 mps 756 mmHg 61%
    04:00 +19°C° 0 mm 6 mps 756 mmHg 63%
    05:00 +19°C° 0 mm 6 mps 757 mmHg 64%
    06:00 +20°C° 0 mm 6 mps 757 mmHg 60%
    07:00 +22°C° 0 mm 6 mps 757 mmHg 55%
    08:00 +23°C° 0 mm 6 mps 757 mmHg 50%
    09:00 +26°C° 0 mm 5 mps 757 mmHg 45%
    10:00 +29°C° 0 mm 5 mps 756 mmHg 39%
    11:00 +32°C° 0 mm 4 mps 756 mmHg 34%
    12:00 +34°C° 0 mm 4 mps 755 mmHg 31%
    13:00 +35°C° 0 mm 4 mps 754 mmHg 29%
    14:00 +37°C° 0 mm 4 mps 753 mmHg 27%
    15:00 +37°C° 0 mm 4 mps 752 mmHg 27%
    16:00 +36°C° 0 mm 5 mps 752 mmHg 28%
    17:00 +36°C° 0 mm 5 mps 752 mmHg 29%
    18:00 +34°C° 0 mm 5 mps 752 mmHg 35%
    19:00 +30°C° 0 mm 5 mps 752 mmHg 40%
    20:00 +28°C° 0 mm 5 mps 752 mmHg 46%
    21:00 +28°C° 0 mm 5 mps 752 mmHg 48%
    22:00 +27°C° 0 mm 5 mps 752 mmHg 51%
    23:00 +26°C° 0 mm 6 mps 752 mmHg 54%

    27 November, Monday

    Time Temperature Precipitation Wind Pressure Humidity
    00:00 +25°C° 0 mm 5 mps 751 mmHg 57%
    01:00 +23°C° 0 mm 5 mps 751 mmHg 60%
    02:00 +22°C° 0 mm 5 mps 750 mmHg 63%
    03:00 +22°C° 0 mm 5 mps 750 mmHg 65%
    04:00 +22°C° 0 mm 5 mps 750 mmHg 68%
    05:00 +21°C° 0 mm 5 mps 750 mmHg 71%
    06:00 +23°C° 0 mm 4 mps 750 mmHg 65%
    07:00 +25°C° 0 mm 3 mps 750 mmHg 60%
    08:00 +27°C° 0 mm 3 mps 750 mmHg 55%
    09:00 +29°C° 0 mm 3 mps 750 mmHg 50%
    10:00 +32°C° 0 mm 4 mps 749 mmHg 44%
    11:00 +34°C° 0 mm 4 mps 749 mmHg 39%
    12:00 +33°C° 0 mm 4 mps 749 mmHg 41%
    13:00 +33°C° 0 mm 5 mps 749 mmHg 43%
    14:00 +32°C° 0 mm 5 mps 748 mmHg 45%
    15:00 +32°C° 0 mm 5 mps 748 mmHg 47%
    16:00 +30°C° 0 mm 5 mps 749 mmHg 49%
    17:00 +29°C° 0 mm 5 mps 749 mmHg 51%
    18:00 +28°C° 0 mm 5 mps 749 mmHg 57%
    19:00 +26°C° 0 mm 5 mps 750 mmHg 64%
    20:00 +25°C° 0 mm 5 mps 750 mmHg 70%
    21:00 +23°C° 0 mm 5 mps 750 mmHg 72%
    22:00 +23°C° 0 mm 5 mps 751 mmHg 74%
    23:00 +23°C° 0 mm 4 mps 751 mmHg 76%
    Show more